Volver al catálogo

CZ-6A DEB

ActivoPO
NORAD 60754·DEBRIS·🇨🇳 China

Lanzado Aug 6, 2024 desde Taiyuan Satellite Launch Center

Loading…

Próximos Pases (próximas 24 horas)

TLE

ActualizadoSource: Space-Track

Época: Sep 14, 2026, 11:13 UTC

1 60754U 24140ED  26257.46743545  .00001291  00000-0  58657-3 0  9990
2 60754  88.9634 261.7180 0052575 267.0704  92.4469 14.20570789107057

Sigue CZ-6A DEB en tiempo real con AllMySat

Download on the App Store